Regional Weather Roundup
Issued by NWS

Home | Current Version | Previous Version | Text Only | Print | Product List | Glossary Off
Versions: 1 2 3 4 5 6 7 8 9 10 11 12 13 14 15 16 17 18 19 20 21 22 23 24 25 26 27 28 29 30 31 32 33 34 35 36 37 38 39 40 41 42 43 44 45 46 47 48 49 50

000
ASUS45 KCYS 240910
RWRWY

WYOMING REGIONAL WEATHER ROUNDUP
NATIONAL WEATHER SERVICE CHEYENNE WY
300 AM MDT THU JUL 24 2014

NOTE:  "FAIR" INDICATES FEW OR NO CLOUDS BELOW 12,000 FEET
WITH NO SIGNIFICANT WEATHER AND/OR OBSTRUCTIONS TO VISIBILITY.

WYZ001-241000-
YELLOWSTONE NATIONAL PARK

CITY           SKY/WX    TMP DP  RH WIND       PRES   REMARKS
LK YELLOWSTONE   N/A     45  39  79 NW3       30.25F
W YELLOWSTONE  NOT AVBL

$$
WYZ002>013-054>058-071-098>099-241000-
NORTHERN WYOMING

CITY           SKY/WX    TMP DP  RH WIND       PRES   REMARKS
JACKSON        CLEAR     50  39  66 NE5       30.14F
CODY           NOT AVBL
GREYBULL       PTCLDY    72  44  36 S3        29.89S
WORLAND        CLOUDY    80  40  23 SW10      29.91R
SHERIDAN       PTCLDY    61  54  77 SW5       29.85F
BUFFALO        PTCLDY    82  38  20 VRB5G18   29.96F
GILLETTE       PTCLDY    71  61  70 S13       29.93F
HULETT         FAIR      70  57  64 MISG      29.94
NEWCASTLE      FAIR      77  57  50 MISG      29.99

$$
WYZ014>020-022>026-101>103-241000-
CENTRAL WYOMING

CITY           SKY/WX    TMP DP  RH WIND       PRES   REMARKS
BIG PINEY      PTCLDY    56  50  80 NW6       30.24F
PINEDALE       PTSUNNY   57  48  72 CALM      30.24F
DUBOIS         FAIR      61  32  33 CALM      30.21F
LANDER         MOCLDY    82  38  20 S23G33    30.04F
RIVERTON       MOCLDY    78  38  23 W15       30.08S
CASPER         PTCLDY    77  39  25 S17       30.05F
DOUGLAS        PTCLDY    62  49  62 MISG      30.05F

$$
WYZ021-027>030-104>119-241000-
SOUTHERN WYOMING

CITY           SKY/WX    TMP DP  RH WIND       PRES   REMARKS
EVANSTON       CLEAR     64  43  46 SW15      30.22S
KEMMERER       MOSUNNY   64  36  34 CALM      30.24S
FORT BRIDGER   FAIR      70  38  30 SW6       30.24S
ROCK SPRINGS   PTCLDY    70  34  26 S8        30.22F
DIXON          FAIR      64  39  40 CALM      30.28R
RAWLINS        MOCLDY    71  37  28 W7        30.24R
SARATOGA       FAIR      72  39  30 SE12      30.28S
LARAMIE        MOCLDY    69  41  36 SW15G23   30.28F
CHEYENNE       CLEAR     63  48  58 S8        30.19F
TORRINGTON     PTCLDY    70  56  61 E15       30.01F
PINE BLUFFS    FAIR      68  54  60 SW8       30.15S

$$


USA.gov is the U.S. government's official web portal to all federal, state and local government web resources and services.